Weather Roundup
Issued by NWS Corpus Christi, TX

Home | Current Version | Previous Version | Text Only | Print | Product List | Glossary On
Versions: 1 2 3 4 5 6 7 8 9 10 11 12 13 14 15 16 17 18 19 20 21 22 23 24 25 26 27 28 29 30 31 32 33 34 35 36 37 38 39 40 41 42 43 44 45 46 47 48 49 50
000
ASUS44 KCRP 242310
HRRCRP

SOUTH TEXAS REGIONAL WEATHER ROUNDUP
NATIONAL WEATHER SERVICE CORPUS CHRISTI TX
600 PM CDT FRI OCT 24 2014


TXZ229>244-250000-
...CORPUS CHRISTI AREA OBSERVATIONS...

CITY           SKY/WX    TMP DP  RH WIND       PRES   REMARKS
CORPUS CHRISTI MOSUNNY   80  61  52 E9        30.07S
NAS CORPUS CHR SUNNY     78  64  61 SE9       30.07F
ROCKPORT       CLEAR     78  62  57 SE9       30.07S
KINGSVILLE NAS SUNNY     83  61  47 E7        30.07S
ALICE          SUNNY     85  58  39 E7        30.06S
FALFURRIAS     SUNNY     83  59  44 E9        30.06S
$$

...VICTORIA AREA OBSERVATIONS...

CITY           SKY/WX    TMP DP  RH WIND       PRES   REMARKS
VICTORIA       CLEAR     84  57  39 E9        30.07S
BEEVILLE       CLOUDY    85  55  35 SE8       30.06S
PLEASANTON     SUNNY     85  56  37 NE3       30.07F
SAN ANTONIO    MOSUNNY   84  57  39 S5        30.08S
$$

...LAREDO AREA OBSERVATIONS...

CITY           SKY/WX    TMP DP  RH WIND       PRES   REMARKS
LAREDO         SUNNY     87  60  40 CALM      30.08F
COTULLA        SUNNY     89  57  33 VRB3      30.06S
DEL RIO        SUNNY     84  62  47 S7        30.06F
MCALLEN        SUNNY     84  62  47 NE9       30.07R
HEBBRONVILLE   MOSUNNY   86  56  35 E7        30.08S
$$

...OTHER TEXAS OBSERVATIONS...

CITY           SKY/WX    TMP DP  RH WIND       PRES   REMARKS
BROWNSVILLE    SUNNY     80  65  59 NE10      30.08R
HOUSTON        CLEAR     78  56  46 NE6       30.08F
COL. STATION   CLEAR     80  57  45 E6        30.09S
AUSTIN         PTCLDY    83  59  44 E5        30.08S
WACO           CLEAR     81  60  48 S7        30.08S
FORT WORTH     PTCLDY    82  61  48 S9        30.06F
WICHITA FALLS  PTCLDY    85  59  41 S13       30.02F
LUBBOCK        SUNNY     83  48  29 SW14      30.11S
EL PASO        SUNNY     83  43  24 NW3       30.16S
$$

...MARINE OBSERVATIONS...

STATION/POSITION TIME  SKY/WX   TEMP    WIND        PRES    VSBY  WAVE   SWELL
                                AIR SEA DIR/SP/G                  HT/PER HT/PER
                 (UTC)          (F)     (DEG/KT/KT) (MB)    (MI)  (FT/S) (FT/S)
PORT ARANSAS     2300            76 80  100/  8/  9 1019.6F
BUOY 90 E PORT A 2300            74 81   20/ 10/ 14 1018.9R         3/ 8   2/ 8
BUOY 45 SE BAFFI 2300            76 80   40/ 10/ 12 1018.0F         4/ 8   3/ 8
BUOY 200 E PT IS 2300            76 81   10/ 10/ 14 1016.8F         4/ 7   3/ 7
BUOY 15 E GALVES 2300            72 78  320/  2/  4 1018.7R         2/ 7   2/ 7
$$



USA.gov is the U.S. government's official web portal to all federal, state and local government web resources and services.